Vorticity
2 4 4 7 12 10 5 5 7 9 10 9 9 9 9 9 9 9 9 8 7 7 6 7 9 10 11 11 10 9 8 7 8 8 8 9 9 9 9 8 8 8 8 7 7 8 6 6 7 7 7 6 6 6 6 6 6 6 6 6 6 7 7 8 8 8 10 13 14 13 12 11 13 14 13 12 12 11 9 9 10 10 12 13 4 -0 10
4 2 3 11 12 5 4 8 10 10 10 10 9 8 8 7 7 8 9 8 6 6 8 9 10 9 9 8 8 7 7 7 8 8 9 8 8 8 7 7 7 7 7 7 7 7 7 6 6 6 6 5 6 6 6 6 6 6 6 6 7 9 10 11 11 10 11 12 11 11 11 13 15 15 13 13 12 9 9 10 9 8 10 8 2 4 11
3 4 8 13 8 4 8 10 11 11 10 8 7 7 7 8 8 9 9 8 7 8 9 9 9 8 8 7 7 7 7 8 8 7 7 7 7 7 6 7 7 7 7 7 7 7 7 6 6 6 6 6 5 5 5 6 6 7 8 9 10 12 14 14 14 15 16 18 15 12 12 15 16 14 13 12 10 9 9 9 9 9 8 9 9 7 7
7 11 12 9 6 8 11 11 10 9 6 7 7 7 8 9 9 9 9 9 9 9 8 8 8 8 8 7 7 8 7 7 7 6 6 7 7 6 7 7 7 7 7 7 6 6 6 6 6 6 5 5 5 6 6 7 9 10 11 12 13 15 17 16 14 15 17 18 15 12 13 14 13 12 10 9 8 9 10 10 11 9 5 8 11 4 3
12 12 10 9 9 11 10 8 8 6 6 8 9 8 8 8 8 7 7 8 8 7 7 7 8 7 7 7 7 6 6 6 6 7 6 6 6 7 8 8 8 7 6 6 5 5 5 5 5 5 6 6 7 8 9 11 13 14 15 16 16 17 17 15 14 14 15 13 11 10 11 10 10 9 9 9 9 10 11 11 9 6 3 6 10 6 6
13 12 11 11 10 9 7 6 6 6 8 9 8 8 8 7 7 7 7 7 7 7 6 6 6 6 6 6 6 6 6 6 6 7 7 8 8 8 9 8 7 6 5 5 4 4 4 5 5 6 7 8 10 11 14 16 16 16 16 16 15 14 14 12 11 12 12 10 10 10 10 11 11 10 9 10 10 9 9 9 7 6 7 8 9 8 9
13 12 11 9 6 5 5 7 8 9 9 8 8 8 7 6 7 7 6 6 6 7 6 6 6 6 5 6 6 6 6 7 8 9 9 10 10 8 6 5 5 4 4 4 4 5 5 5 6 7 9 11 13 15 17 17 15 15 13 12 11 11 12 11 11 13 13 10 10 10 11 11 10 7 7 8 8 8 9 10 10 9 9 9 8 8 9
10 8 6 4 5 6 8 9 10 9 8 7 7 6 6 6 5 5 6 6 6 6 5 5 5 5 6 7 7 9 10 11 11 11 9 7 6 4 3 3 4 4 4 5 5 5 5 6 8 10 13 15 16 17 16 13 12 11 10 10 10 10 12 12 12 16 16 12 10 10 9 8 7 7 8 9 8 8 9 10 9 7 6 7 7 6 8
5 4 4 6 8 9 10 9 8 7 6 6 6 6 6 5 5 5 5 5 5 5 5 6 6 8 10 11 12 13 12 10 8 5 4 2 1 2 3 4 4 4 5 5 5 6 8 11 13 14 16 17 15 14 12 10 10 9 9 10 10 10 12 12 11 14 14 10 9 9 8 7 8 9 8 7 6 6 8 8 8 7 7 7 7 7 8
4 5 8 10 9 8 8 6 6 6 5 4 4 4 5 5 5 5 5 5 6 7 9 11 12 13 13 11 10 8 5 5 3 1 1 2 3 4 5 5 5 4 5 6 8 11 13 15 16 16 16 14 12 11 10 9 9 8 9 10 10 10 10 9 8 9 10 9 9 10 9 8 7 6 5 5 5 6 7 8 9 10 9 9 9 8 7
8 10 10 9 7 6 6 5 4 5 5 5 5 6 7 7 8 9 10 11 13 14 14 14 12 9 6 4 4 4 3 3 2 1 2 4 5 6 5 5 5 6 8 11 13 16 16 16 15 14 13 11 10 9 9 9 9 9 9 10 9 8 8 7 8 8 10 10 8 7 8 5 4 4 5 6 6 6 5 7 11 10 7 7 8 7 7
10 9 7 6 6 6 6 7 7 8 9 9 10 11 12 13 13 15 15 13 13 11 8 6 3 2 2 3 4 4 3 2 2 4 5 6 6 5 5 6 8 11 14 16 17 16 15 14 13 12 11 10 10 10 9 9 9 9 9 8 8 7 7 8 8 8 8 7 5 5 6 4 4 6 7 7 8 7 6 9 12 9 4 5 6 6 6
7 7 6 7 8 9 9 10 10 10 11 11 12 13 14 14 12 11 9 6 5 4 2 2 2 3 4 4 3 2 2 3 5 6 6 5 5 7 9 12 15 17 18 17 16 14 13 13 12 11 11 11 10 10 10 9 9 9 8 7 8 9 9 9 7 6 5 4 4 6 6 6 7 7 8 8 8 8 7 7 7 3 2 5 6 5 5
8 9 9 9 9 10 10 10 11 12 12 12 12 11 9 8 6 4 3 3 3 3 3 4 5 4 4 3 3 4 4 5 6 6 6 8 10 13 16 18 18 17 16 14 14 13 12 12 11 11 11 10 10 10 9 9 9 9 9 9 9 9 8 6 4 4 4 4 5 6 6 7 8 7 9 9 8 9 9 8 7 4 4 7 5 4 6
9 8 9 9 10 11 12 12 12 11 9 8 6 4 3 3 4 3 4 5 5 5 5 6 4 3 3 3 4 5 6 8 10 12 14 16 18 19 18 17 16 14 13 13 13 12 12 11 11 11 10 9 9 9 9 10 10 10 10 9 8 6 5 4 5 5 6 6 7 8 8 7 7 10 12 11 10 11 9 9 9 7 6 6 4 5 6
9 10 11 11 11 11 9 8 6 4 3 3 2 3 4 5 6 7 7 6 5 5 5 4 3 2 3 5 8 11 15 17 18 19 20 19 18 17 15 14 14 13 13 13 12 11 11 10 10 10 9 8 9 10 11 11 10 9 8 7 6 5 5 6 7 7 7 8 10 13 13 11 11 12 11 8 8 8 5 5 7 7 6 7 6 6 6
12 11 10 7 6 4 2 2 2 2 3 4 5 7 8 8 8 7 5 5 4 3 2 1 2 7 12 17 21 22 23 22 21 19 18 16 15 14 14 13 13 12 11 11 10 10 10 9 9 9 9 10 11 11 10 9 7 6 5 5 5 6 6 7 8 8 9 10 11 11 11 11 12 11 9 7 6 5 4 6 8 7 6 6 6 6 6
8 6 3 1 1 2 2 3 5 6 8 9 9 10 10 8 6 4 3 3 1 0 3 7 14 21 24 24 24 22 20 19 18 16 15 14 13 12 12 11 10 10 10 9 9 9 9 9 10 10 11 11 10 9 7 5 4 4 5 6 7 7 7 8 8 8 9 10 11 10 9 9 9 9 7 6 5 4 6 7 6 6 7 6 6 7 6
2 2 2 2 4 5 6 8 9 9 10 10 10 11 8 5 3 3 2 -0 -0 6 14 20 23 24 21 18 17 17 16 14 13 13 12 11 11 10 9 10 10 10 10 9 10 11 11 11 11 11 10 8 6 5 5 4 5 6 7 8 7 7 8 9 8 9 10 11 11 8 6 6 6 6 4 5 6 6 7 7 6 7 8 7 6 7 7
3 4 5 6 8 9 9 10 10 9 9 8 7 6 3 1 1 1 -2 1 10 19 21 18 17 15 12 12 14 13 12 11 10 10 10 9 10 9 10 11 11 11 11 11 12 12 11 10 9 7 6 5 4 5 5 6 8 8 8 8 8 8 9 9 9 10 10 12 10 7 7 8 7 6 3 3 7 8 7 8 7 6 7 7 7 8 9
6 7 8 9 10 9 9 9 8 7 6 4 3 2 1 1 1 -0 3 13 22 20 13 10 11 11 9 10 10 9 9 9 9 9 9 9 10 11 11 12 12 11 12 11 11 10 8 7 5 5 5 5 5 7 7 8 9 8 8 9 9 9 9 9 10 12 11 10 7 4 6 7 7 7 8 8 9 8 6 7 7 6 7 7 7 9 11
9 9 9 8 8 7 7 7 6 4 4 3 3 3 2 1 1 6 15 23 20 12 9 9 9 8 8 9 8 8 9 9 9 9 10 11 12 12 12 11 10 10 9 8 8 7 5 5 5 5 6 7 8 9 9 8 8 8 9 9 8 10 12 11 11 11 10 8 7 6 7 7 8 9 10 9 8 6 6 6 7 8 9 8 8 10 11
8 7 7 7 7 7 6 5 4 3 3 2 2 2 1 4 9 16 21 20 14 10 10 9 7 8 8 8 7 8 9 10 11 11 12 12 12 10 10 9 8 7 6 6 6 6 5 5 6 7 8 9 9 9 8 8 8 9 10 9 9 11 12 11 10 9 6 5 6 7 6 5 6 7 7 6 6 6 7 7 7 8 9 8 9 10 11
8 8 8 8 7 7 6 5 5 4 4 5 6 8 11 15 18 19 18 15 12 10 8 7 8 9 8 7 9 10 11 12 12 11 11 11 9 7 7 7 6 5 6 6 5 5 5 7 9 9 10 10 9 8 8 8 9 10 10 11 13 13 11 10 9 6 4 3 2 2 4 5 6 5 3 3 3 3 4 5 5 6 7 8 10 10 10
7 6 6 5 5 6 7 8 9 11 12 13 15 16 18 18 17 16 15 13 11 10 10 10 10 9 9 10 12 13 13 12 11 9 8 7 6 5 6 6 5 6 6 5 5 6 8 9 11 10 9 9 9 8 8 9 10 10 11 11 11 10 7 5 3 1 3 6 5 3 2 3 4 4 2 1 2 2 2 4 6 7 8 9 10 10 11
7 7 8 10 10 11 12 13 15 16 17 18 18 18 18 16 15 15 14 12 11 11 11 11 10 11 12 13 13 12 10 9 7 6 6 6 5 5 5 5 6 6 6 6 7 9 11 11 10 9 8 9 8 7 9 11 11 11 12 11 9 7 5 5 4 2 3 4 3 2 -0 -3 -4 -2 1 3 4 5 5 5 6 8 8 8 10 13 15
13 13 14 15 15 16 17 18 19 19 18 18 17 16 15 14 13 13 12 12 12 12 12 12 13 13 13 12 10 8 6 6 6 6 6 5 5 5 6 6 6 6 6 9 10 11 11 9 8 9 9 8 9 9 10 12 12 11 11 8 6 5 4 3 3 3 1 0 2 6 9 9 6 5 5 6 6 5 5 4 5 8 9 9 10 14 18
15 15 17 18 19 20 19 18 17 16 15 14 14 14 14 14 14 14 13 14 14 14 13 13 12 11 9 8 7 6 5 5 6 5 5 6 6 6 7 6 7 8 9 11 11 9 8 8 8 9 9 8 10 11 11 11 11 10 8 6 5 5 5 4 5 6 6 7 7 8 10 10 9 7 6 5 5 4 4 4 6 9 11 11 13 16 17
16 18 21 21 20 18 15 13 13 13 13 13 13 14 15 14 14 14 12 12 12 11 10 9 7 7 6 5 6 6 5 5 6 5 6 7 7 7 8 7 9 10 10 10 10 8 8 9 9 9 9 10 11 12 11 11 10 7 6 5 5 5 6 7 8 8 8 8 7 6 5 4 5 6 5 4 5 4 3 4 7 9 11 15 19 21 19
18 20 20 18 15 12 11 13 15 14 12 12 12 13 13 12 11 11 9 9 9 7 6 7 6 5 5 4 5 6 6 6 7 6 7 8 8 8 9 9 10 11 10 9 8 7 9 9 9 10 11 11 11 11 10 10 9 6 6 6 5 5 6 6 6 6 6 5 3 3 3 4 4 4 3 2 3 3 2 4 7 11 15 19 22 23 21
17 19 18 15 12 12 12 14 15 14 12 11 11 12 11 10 9 9 7 7 7 6 6 6 6 5 5 6 7 8 8 7 7 8 8 9 9 10 11 11 10 10 8 8 8 9 9 9 9 11 11 9 10 10 9 8 8 7 6 6 5 6 5 3 2 2 2 3 2 1 0 -0 -0 1 1 -1 -1 1 3 8 12 15 19 23 24 25 24
16 19 19 15 13 13 12 13 14 14 14 14 13 11 11 10 9 9 8 8 8 7 7 8 8 7 8 8 8 8 8 8 9 10 10 10 11 11 11 10 9 7 7 8 9 9 8 9 10 11 10 9 10 10 7 7 7 5 4 4 3 3 2 0 1 2 2 2 3 3 3 1 -0 0 1 0 1 4 8 13 17 19 22 25 27 26 24
13 16 18 17 15 14 13 13 14 14 14 14 14 13 13 12 11 11 11 10 10 9 9 9 9 9 9 9 9 8 9 9 10 11 11 11 11 10 9 7 7 7 8 10 9 8 9 10 10 10 10 9 9 8 6 7 7 6 5 5 3 2 2 3 4 4 3 2 2 3 5 6 4 2 3 4 7 11 15 18 19 20 24 27 27 25 24
11 12 13 14 14 14 14 13 12 12 12 12 11 11 11 11 10 10 9 9 9 9 9 9 9 9 9 9 9 9 10 11 11 11 11 10 8 7 6 6 7 9 10 10 9 10 11 10 10 10 11 9 8 8 7 7 6 4 3 3 2 2 3 3 2 2 1 1 2 2 3 4 4 4 6 7 9 13 17 19 20 22 27 30 28 25 21
11 10 10 10 11 12 12 11 9 10 10 10 9 8 8 8 9 8 7 8 8 9 9 10 10 11 11 11 12 12 12 12 12 10 9 8 6 6 7 8 9 10 10 9 10 11 10 9 10 11 10 7 8 8 7 5 3 2 1 2 3 3 3 3 2 3 3 3 4 4 2 2 3 4 6 8 13 19 23 25 27 30 31 30 25 19 14
10 10 9 9 10 10 9 8 7 8 8 8 7 7 7 7 8 7 8 8 8 9 10 10 10 12 14 14 15 14 12 10 9 8 7 7 7 8 9 10 10 10 10 10 11 10 10 10 10 10 8 8 8 7 4 3 4 4 4 5 5 4 4 4 4 5 5 4 4 3 2 2 3 4 7 13 19 23 25 27 30 30 28 23 19 14 12
11 10 9 10 10 9 8 7 8 8 7 7 8 8 8 7 9 10 9 10 10 10 10 10 11 12 13 12 12 11 9 7 7 7 7 8 9 9 11 11 10 10 11 10 9 9 10 10 9 8 8 8 6 4 4 5 7 6 5 5 5 4 4 4 5 6 6 5 3 2 0 -0 1 5 10 17 24 28 30 32 32 28 22 18 15 13 13
12 11 10 10 10 8 8 9 9 10 9 9 9 10 10 10 12 13 13 13 14 13 11 11 11 11 11 9 9 8 7 7 8 8 7 9 11 11 11 10 9 10 11 10 9 9 10 8 7 8 8 6 4 5 6 7 6 5 5 4 4 4 5 5 6 6 6 4 2 1 3 6 11 17 23 29 35 39 39 34 28 20 14 12 12 12 13
13 13 12 11 10 9 9 11 11 11 11 12 12 13 14 15 15 14 15 16 16 14 12 12 11 10 9 9 8 8 8 8 8 8 9 11 11 10 9 10 10 10 12 11 9 9 9 8 8 8 7 5 5 7 7 6 5 5 4 4 5 5 6 6 5 4 2 2 4 9 16 23 29 33 37 40 41 40 34 25 18 13 11 11 12 12 12
15 16 15 14 13 13 12 13 12 12 13 15 16 16 16 15 13 13 13 13 12 11 11 10 9 9 9 8 7 8 9 8 8 9 10 10 9 9 10 10 10 10 11 10 8 7 8 9 8 7 6 6 6 6 6 5 5 5 5 5 6 6 6 5 3 1 1 5 11 19 26 31 33 35 37 37 34 30 24 17 13 11 11 11 11 11 11
14 16 17 15 15 16 15 15 14 14 14 15 16 16 15 14 12 11 11 10 9 10 10 10 9 9 8 7 7 7 8 8 8 9 10 9 8 10 10 9 8 10 10 8 7 8 9 8 7 7 6 6 5 5 5 5 5 5 6 7 6 6 5 2 1 2 5 13 21 27 31 34 35 34 31 26 20 17 14 12 11 11 11 12 12 12 12
12 14 15 14 15 16 15 15 16 16 16 16 17 17 15 13 11 10 9 8 9 10 9 8 8 7 6 6 6 7 7 8 8 8 8 8 8 9 9 9 10 11 10 9 9 9 7 6 6 6 5 4 4 5 5 5 6 7 8 7 5 4 2 1 2 7 16 25 31 35 37 37 34 28 21 16 13 12 11 10 11 12 13 12 11 10 9
10 11 12 14 15 15 14 15 17 18 18 17 17 16 14 13 11 9 9 9 9 9 8 7 7 7 7 7 7 7 8 7 6 6 7 8 9 10 10 11 11 10 10 9 8 7 6 6 6 5 4 4 5 6 6 7 8 8 7 5 3 2 2 3 9 18 28 34 36 37 37 33 25 18 13 11 11 11 12 11 11 12 11 9 7 7 7
8 9 11 12 13 14 14 15 17 18 19 20 18 16 15 14 11 9 9 10 9 7 7 7 7 7 6 7 7 7 7 6 6 8 9 9 10 11 11 11 10 10 9 9 7 6 6 6 6 5 6 6 6 7 7 8 8 6 4 3 3 3 4 9 17 26 33 36 37 36 31 22 14 12 11 11 11 11 12 12 10 8 7 6 6 7 7
5 7 9 11 11 12 13 14 16 19 21 21 19 17 16 15 13 12 12 11 9 7 7 8 7 6 6 7 7 6 6 7 8 9 9 10 11 11 11 10 11 10 9 8 6 6 6 7 6 6 7 7 7 8 8 7 5 3 2 3 5 7 10 17 26 34 39 40 36 29 20 12 10 11 12 12 12 12 10 9 7 6 5 6 7 6 6
3 5 7 9 10 11 12 13 15 18 20 21 20 19 18 17 15 14 13 11 10 10 10 9 8 7 7 7 7 6 7 8 9 9 10 10 11 11 11 11 10 9 7 6 7 7 8 8 7 7 7 8 8 8 7 4 2 2 3 4 6 12 18 27 36 42 42 37 28 17 11 10 11 13 13 12 11 9 6 6 6 7 6 7 7 8 9
2 3 5 7 9 10 11 13 15 17 18 19 20 19 18 16 15 14 13 12 11 10 9 8 7 7 7 7 8 7 8 9 10 10 10 11 11 12 12 11 10 9 8 8 9 9 8 7 7 7 8 8 8 6 4 1 0 2 4 7 12 20 28 35 42 44 37 26 16 10 10 12 12 12 11 9 7 6 6 6 6 6 6 8 9 10 10
3 3 4 6 8 9 10 12 15 17 17 17 17 16 16 15 14 13 12 11 10 9 8 8 7 7 8 8 8 8 9 10 11 11 11 12 12 12 11 10 10 10 9 9 9 8 7 7 8 8 8 7 6 3 1 -0 0 3 7 12 21 30 36 40 42 37 25 14 9 10 11 11 11 9 8 7 5 5 6 6 6 8 9 9 10 9 9
4 4 3 4 7 9 9 11 14 17 17 17 16 15 15 14 13 11 11 10 9 9 9 8 7 8 8 8 8 8 10 10 10 11 12 13 12 12 11 11 11 10 9 8 8 7 7 8 8 7 6 5 4 1 0 0 3 7 12 20 31 39 42 40 36 25 13 8 9 10 10 9 9 8 7 6 6 6 6 7 8 9 9 9 9 9 9
4 4 3 4 6 8 9 10 14 17 18 17 15 15 14 13 11 10 10 10 9 9 8 8 8 8 7 7 8 10 11 11 11 13 13 13 12 12 12 12 10 9 8 7 7 7 7 7 7 5 5 4 3 1 1 3 6 12 20 30 39 44 41 33 23 14 7 7 10 10 8 8 8 7 6 7 6 6 7 9 9 9 9 9 9 9 10
4 4 4 4 5 7 9 10 13 16 18 16 14 13 12 12 11 10 10 10 9 8 8 8 8 7 7 9 11 12 12 13 14 14 14 13 13 13 12 10 9 8 7 7 7 7 7 6 5 4 4 3 2 2 3 6 11 18 28 37 43 41 32 21 12 8 7 9 9 8 8 8 7 7 7 7 6 6 7 8 8 9 9 9 9 11 12
3 4 4 4 5 7 9 10 11 15 17 16 14 12 12 11 11 11 10 8 8 8 8 8 7 8 10 12 13 14 15 15 15 14 14 14 14 12 10 9 8 7 7 7 7 6 5 5 5 4 4 3 2 3 7 11 16 22 32 40 40 32 21 12 7 7 8 9 8 8 8 7 7 6 6 6 7 8 8 9 9 9 9 9 11 13 13
Height
5786 5788 5789 5790 5791 5791 5792 5793 5793 5794 5794 5794 5795 5795 5795 5795 5795 5795 5795 5795 5795 5795 5794 5794 5794 5794 5793 5793 5792 5792 5791 5790 5790 5789 5788 5787 5786 5785 5784 5783 5782 5781 5780 5778 5777 5775 5774 5773 5771 5769 5766 5764 5762 5760 5757 5755 5752 5750 5747 5744 5741 5738 5735 5733 5731 5730 5727 5724 5720 5716 5712 5709 5706 5703 5699 5694 5690 5687 5683 5679 5675 5670 5667 5667 5660 5651 5652
5787 5788 5789 5790 5791 5792 5792 5793 5793 5794 5794 5794 5794 5795 5795 5795 5795 5795 5795 5794 5794 5794 5794 5794 5793 5793 5792 5792 5791 5791 5790 5789 5788 5787 5786 5785 5784 5783 5782 5781 5780 5779 5777 5776 5774 5772 5771 5769 5768 5765 5763 5761 5758 5756 5753 5751 5748 5745 5742 5739 5736 5733 5730 5727 5725 5723 5722 5719 5715 5711 5708 5705 5702 5699 5694 5689 5686 5683 5680 5677 5672 5666 5663 5661 5657 5650 5649
5788 5789 5790 5790 5791 5792 5792 5793 5793 5794 5794 5794 5794 5794 5794 5794 5794 5794 5794 5794 5794 5793 5793 5793 5792 5792 5791 5791 5790 5789 5789 5788 5787 5786 5785 5784 5782 5781 5780 5779 5778 5776 5775 5773 5771 5769 5767 5766 5764 5762 5759 5757 5755 5752 5749 5747 5744 5741 5737 5734 5732 5729 5726 5723 5719 5716 5714 5712 5707 5703 5701 5699 5697 5694 5689 5685 5682 5679 5676 5672 5668 5662 5657 5655 5652 5647 5645
5788 5789 5790 5791 5791 5792 5792 5793 5794 5794 5794 5794 5794 5794 5794 5794 5794 5794 5794 5793 5793 5793 5792 5792 5792 5791 5790 5790 5789 5788 5787 5786 5785 5784 5783 5782 5780 5779 5778 5777 5775 5774 5772 5770 5768 5766 5764 5762 5760 5758 5755 5753 5751 5748 5745 5742 5739 5736 5733 5729 5727 5724 5722 5719 5716 5713 5710 5706 5701 5698 5695 5694 5691 5688 5684 5681 5677 5674 5671 5667 5663 5658 5652 5650 5648 5641 5637
5789 5790 5790 5791 5792 5792 5793 5793 5794 5794 5794 5794 5794 5794 5794 5794 5793 5793 5793 5793 5792 5792 5792 5791 5791 5790 5789 5788 5787 5786 5785 5784 5783 5782 5781 5779 5778 5777 5775 5774 5772 5771 5769 5767 5765 5763 5762 5759 5757 5754 5752 5749 5746 5744 5741 5738 5734 5731 5728 5725 5721 5719 5718 5715 5712 5711 5708 5703 5699 5695 5692 5689 5686 5682 5679 5676 5673 5669 5666 5663 5659 5654 5648 5645 5644 5637 5631
5789 5790 5791 5791 5792 5792 5793 5793 5794 5794 5794 5794 5794 5794 5793 5793 5793 5793 5792 5792 5792 5791 5791 5790 5789 5789 5788 5787 5786 5785 5783 5782 5781 5780 5779 5777 5776 5774 5773 5771 5770 5768 5766 5764 5762 5760 5758 5756 5753 5751 5748 5745 5742 5739 5736 5733 5730 5727 5723 5720 5717 5714 5713 5711 5709 5709 5705 5699 5695 5693 5689 5685 5682 5678 5674 5672 5669 5665 5662 5659 5655 5650 5644 5640 5638 5633 5628
5790 5791 5791 5792 5792 5793 5793 5793 5794 5794 5793 5793 5793 5793 5793 5793 5793 5792 5792 5791 5791 5790 5790 5789 5788 5787 5786 5785 5784 5783 5781 5780 5779 5778 5776 5775 5773 5772 5770 5769 5767 5765 5763 5761 5758 5756 5754 5752 5749 5746 5744 5741 5737 5735 5732 5729 5726 5723 5719 5717 5713 5710 5709 5707 5705 5706 5703 5696 5692 5689 5685 5682 5678 5674 5671 5669 5665 5661 5658 5655 5651 5645 5640 5635 5632 5629 5625
5791 5791 5792 5793 5793 5793 5793 5793 5793 5793 5793 5793 5793 5793 5793 5792 5792 5792 5791 5790 5790 5789 5788 5788 5786 5785 5784 5783 5782 5781 5779 5778 5777 5775 5774 5772 5771 5769 5768 5766 5764 5761 5759 5757 5754 5752 5750 5747 5745 5742 5739 5736 5733 5731 5728 5725 5722 5719 5716 5714 5710 5706 5704 5702 5700 5701 5699 5694 5689 5686 5682 5678 5674 5671 5668 5665 5661 5656 5652 5649 5646 5641 5636 5631 5626 5622 5620
5792 5792 5793 5793 5793 5793 5793 5793 5793 5793 5793 5793 5793 5792 5792 5792 5791 5791 5790 5789 5789 5788 5787 5786 5785 5784 5782 5781 5780 5779 5777 5776 5775 5773 5771 5770 5768 5766 5765 5762 5760 5758 5755 5753 5750 5748 5745 5743 5740 5737 5735 5732 5729 5726 5724 5721 5718 5716 5713 5710 5707 5703 5700 5698 5695 5695 5694 5690 5686 5683 5679 5674 5670 5667 5664 5660 5656 5651 5647 5643 5640 5635 5630 5626 5621 5615 5612
5792 5793 5793 5793 5793 5793 5793 5793 5793 5793 5793 5792 5792 5792 5791 5791 5790 5790 5789 5788 5787 5786 5785 5784 5783 5781 5780 5779 5778 5776 5775 5774 5772 5771 5769 5767 5765 5763 5761 5759 5756 5754 5751 5749 5746 5744 5741 5739 5736 5733 5731 5728 5725 5723 5720 5717 5714 5712 5709 5707 5704 5700 5697 5694 5691 5689 5689 5686 5682 5679 5675 5670 5666 5662 5659 5655 5651 5647 5642 5638 5633 5628 5622 5617 5613 5609 5604
5793 5793 5793 5793 5793 5793 5793 5793 5793 5792 5792 5792 5791 5791 5790 5789 5789 5788 5787 5786 5785 5784 5783 5782 5781 5780 5778 5777 5776 5774 5773 5771 5770 5768 5766 5764 5762 5760 5757 5755 5753 5750 5747 5745 5743 5740 5738 5735 5732 5730 5727 5725 5722 5719 5716 5713 5711 5708 5705 5703 5700 5697 5693 5690 5687 5684 5683 5681 5677 5674 5671 5666 5661 5658 5654 5650 5646 5641 5637 5632 5627 5621 5616 5611 5606 5603 5598
5793 5793 5793 5793 5793 5793 5793 5793 5792 5792 5791 5790 5790 5789 5789 5788 5787 5787 5786 5785 5784 5783 5781 5780 5779 5778 5776 5775 5773 5772 5770 5768 5767 5765 5762 5760 5758 5756 5753 5751 5748 5746 5744 5741 5739 5736 5734 5732 5729 5727 5724 5721 5719 5716 5713 5710 5708 5705 5702 5699 5696 5693 5690 5687 5683 5679 5677 5675 5672 5669 5666 5661 5656 5652 5648 5644 5640 5635 5632 5628 5622 5616 5612 5607 5601 5596 5591
5793 5793 5793 5793 5793 5793 5792 5792 5791 5791 5790 5789 5789 5788 5787 5787 5786 5785 5784 5783 5782 5781 5780 5778 5777 5776 5774 5772 5771 5769 5767 5765 5763 5761 5759 5756 5754 5752 5749 5747 5744 5742 5740 5738 5735 5733 5731 5729 5726 5724 5721 5718 5716 5713 5710 5707 5705 5702 5699 5696 5693 5690 5687 5683 5680 5676 5673 5670 5667 5663 5660 5656 5651 5647 5643 5639 5635 5630 5626 5624 5621 5612 5606 5601 5596 5590 5584
5793 5793 5793 5793 5792 5792 5792 5791 5790 5790 5789 5788 5788 5787 5787 5786 5785 5784 5783 5782 5781 5779 5778 5776 5775 5773 5771 5770 5768 5766 5764 5762 5759 5757 5755 5752 5750 5748 5745 5743 5741 5739 5737 5734 5732 5730 5728 5726 5724 5721 5718 5716 5713 5711 5708 5705 5702 5699 5696 5693 5690 5687 5684 5680 5676 5673 5669 5665 5662 5659 5655 5651 5646 5642 5638 5633 5629 5624 5618 5616 5615 5608 5600 5594 5589 5583 5578
5793 5793 5793 5792 5792 5791 5791 5790 5790 5789 5789 5788 5787 5787 5786 5785 5784 5783 5782 5780 5779 5777 5776 5774 5772 5770 5768 5766 5764 5762 5760 5758 5755 5753 5751 5748 5746 5744 5742 5740 5738 5736 5734 5732 5729 5727 5725 5723 5720 5718 5716 5713 5711 5708 5705 5702 5700 5697 5694 5691 5687 5684 5681 5677 5673 5669 5665 5661 5657 5654 5650 5646 5641 5636 5632 5626 5622 5617 5611 5607 5606 5601 5594 5587 5580 5574 5569
5793 5793 5792 5792 5791 5791 5791 5790 5789 5789 5788 5787 5787 5786 5785 5784 5782 5781 5780 5778 5776 5775 5773 5771 5769 5767 5765 5763 5761 5758 5756 5754 5751 5749 5747 5745 5743 5741 5739 5737 5735 5733 5731 5729 5727 5724 5722 5719 5717 5715 5712 5709 5707 5705 5702 5699 5697 5694 5691 5688 5685 5681 5678 5674 5669 5665 5661 5657 5652 5648 5644 5640 5636 5632 5627 5622 5617 5612 5606 5602 5599 5595 5588 5580 5573 5566 5559
5793 5793 5792 5792 5791 5791 5790 5790 5789 5788 5787 5786 5785 5784 5783 5782 5780 5779 5777 5776 5774 5772 5770 5768 5766 5764 5762 5759 5757 5754 5752 5750 5748 5746 5744 5742 5740 5738 5737 5735 5733 5730 5728 5726 5724 5722 5719 5716 5714 5712 5709 5706 5704 5701 5699 5696 5694 5691 5688 5684 5681 5677 5673 5669 5665 5661 5656 5652 5648 5644 5639 5635 5632 5627 5622 5618 5613 5606 5599 5595 5592 5588 5583 5575 5566 5559 5551
5793 5793 5792 5792 5791 5790 5790 5789 5788 5787 5786 5785 5784 5783 5781 5780 5778 5777 5775 5773 5771 5769 5767 5765 5763 5760 5758 5755 5753 5751 5749 5747 5745 5743 5742 5740 5738 5736 5734 5732 5730 5728 5726 5724 5721 5719 5717 5714 5711 5709 5707 5704 5701 5698 5695 5692 5690 5687 5684 5680 5676 5672 5668 5664 5660 5656 5651 5647 5643 5639 5634 5630 5626 5621 5615 5611 5607 5602 5595 5588 5582 5577 5574 5567 5559 5551 5544
5793 5793 5792 5791 5791 5790 5789 5788 5787 5786 5785 5784 5782 5781 5779 5778 5776 5774 5773 5770 5768 5766 5764 5762 5759 5757 5755 5753 5750 5749 5747 5745 5743 5741 5740 5738 5736 5734 5732 5730 5728 5726 5724 5721 5719 5716 5714 5711 5708 5706 5704 5701 5698 5695 5692 5688 5685 5682 5679 5675 5671 5667 5663 5659 5654 5650 5646 5642 5638 5634 5630 5626 5620 5615 5609 5602 5597 5593 5588 5582 5576 5568 5562 5558 5553 5545 5537
5793 5792 5791 5791 5790 5789 5788 5787 5786 5784 5783 5782 5780 5779 5777 5776 5774 5772 5770 5768 5766 5763 5761 5759 5756 5754 5753 5750 5748 5747 5745 5743 5741 5739 5738 5736 5734 5732 5730 5728 5726 5724 5721 5719 5717 5714 5712 5709 5706 5703 5700 5698 5695 5691 5688 5684 5681 5678 5674 5670 5666 5662 5658 5654 5649 5645 5641 5637 5632 5627 5624 5620 5614 5609 5604 5597 5589 5583 5578 5574 5570 5563 5555 5549 5546 5539 5530
5792 5791 5791 5790 5789 5787 5786 5785 5784 5783 5781 5780 5778 5777 5775 5773 5771 5769 5767 5765 5763 5760 5758 5756 5754 5752 5751 5749 5747 5745 5743 5741 5739 5737 5735 5733 5731 5730 5727 5725 5723 5721 5719 5717 5714 5712 5709 5706 5703 5700 5697 5694 5690 5687 5684 5680 5676 5673 5670 5665 5661 5658 5654 5649 5645 5640 5636 5632 5627 5622 5617 5613 5607 5600 5596 5592 5584 5576 5569 5563 5560 5557 5551 5543 5537 5532 5524
5791 5791 5789 5788 5787 5786 5785 5784 5782 5781 5779 5778 5776 5774 5773 5771 5769 5766 5764 5762 5760 5758 5756 5754 5752 5751 5749 5747 5745 5743 5741 5739 5737 5735 5733 5731 5729 5727 5725 5723 5721 5719 5716 5714 5712 5709 5706 5703 5700 5697 5694 5690 5687 5683 5680 5676 5672 5669 5665 5661 5657 5653 5649 5645 5641 5636 5631 5626 5622 5617 5612 5608 5602 5595 5590 5586 5581 5573 5565 5557 5551 5547 5542 5535 5527 5521 5515
5791 5789 5788 5787 5786 5785 5783 5782 5780 5779 5777 5776 5774 5772 5770 5768 5766 5764 5761 5759 5757 5756 5754 5752 5750 5749 5747 5745 5743 5741 5739 5737 5735 5733 5731 5729 5727 5725 5723 5721 5719 5716 5714 5711 5709 5706 5703 5700 5697 5694 5690 5687 5683 5679 5676 5672 5668 5665 5661 5657 5653 5649 5645 5641 5636 5632 5628 5622 5617 5613 5609 5604 5598 5591 5585 5581 5577 5570 5563 5556 5549 5542 5534 5527 5518 5510 5502
5790 5788 5787 5786 5784 5783 5781 5780 5778 5776 5775 5773 5771 5769 5767 5765 5763 5761 5759 5757 5755 5754 5752 5750 5748 5747 5745 5743 5741 5739 5737 5735 5733 5731 5729 5728 5726 5723 5721 5719 5717 5714 5712 5709 5706 5703 5700 5697 5693 5690 5686 5683 5679 5675 5671 5668 5664 5660 5656 5652 5648 5645 5641 5637 5632 5628 5625 5620 5615 5611 5606 5600 5594 5589 5583 5578 5574 5568 5559 5551 5543 5536 5528 5520 5512 5503 5493
5788 5787 5785 5784 5782 5780 5779 5777 5775 5773 5772 5770 5768 5766 5764 5762 5760 5759 5757 5755 5753 5752 5750 5748 5747 5745 5743 5741 5739 5737 5735 5734 5732 5730 5728 5726 5724 5721 5719 5717 5714 5712 5709 5706 5703 5700 5696 5693 5690 5686 5682 5679 5675 5671 5667 5664 5660 5656 5652 5648 5644 5641 5637 5633 5629 5624 5619 5615 5611 5608 5605 5599 5590 5582 5577 5572 5566 5560 5552 5543 5534 5527 5519 5513 5506 5497 5486
5787 5785 5783 5781 5780 5778 5776 5774 5772 5771 5769 5767 5765 5764 5762 5760 5758 5757 5755 5753 5752 5750 5748 5746 5745 5743 5741 5739 5737 5736 5734 5732 5730 5728 5726 5724 5722 5719 5717 5714 5712 5709 5706 5703 5700 5696 5693 5689 5686 5682 5678 5675 5671 5667 5663 5660 5656 5652 5648 5644 5640 5636 5632 5628 5624 5620 5615 5609 5604 5602 5601 5598 5589 5578 5570 5563 5557 5552 5546 5538 5529 5520 5512 5505 5499 5492 5482
5785 5783 5781 5779 5777 5775 5773 5772 5770 5768 5767 5765 5763 5762 5760 5758 5757 5755 5753 5752 5750 5748 5747 5745 5743 5741 5740 5738 5736 5734 5732 5730 5728 5726 5724 5722 5719 5717 5714 5711 5708 5706 5703 5700 5696 5693 5689 5686 5682 5678 5675 5670 5667 5663 5660 5656 5652 5647 5644 5640 5635 5631 5627 5622 5619 5616 5611 5603 5596 5589 5586 5586 5583 5575 5566 5558 5552 5546 5541 5533 5524 5515 5505 5496 5489 5484 5478
5783 5781 5779 5777 5775 5773 5771 5770 5768 5767 5765 5763 5762 5760 5758 5757 5755 5753 5752 5750 5749 5747 5745 5743 5741 5740 5738 5736 5734 5732 5730 5728 5726 5724 5721 5719 5716 5714 5711 5708 5705 5702 5699 5696 5693 5689 5686 5682 5678 5675 5671 5667 5663 5659 5656 5652 5648 5643 5639 5635 5630 5625 5621 5616 5612 5608 5603 5597 5590 5582 5575 5572 5570 5565 5558 5551 5544 5538 5533 5525 5516 5507 5497 5487 5478 5470 5464
5782 5779 5777 5775 5773 5772 5770 5769 5767 5765 5764 5762 5760 5759 5757 5755 5754 5752 5750 5749 5747 5745 5743 5742 5740 5738 5736 5734 5732 5730 5728 5726 5724 5721 5718 5716 5713 5710 5708 5705 5702 5699 5696 5692 5689 5686 5682 5679 5675 5671 5667 5663 5659 5655 5651 5647 5644 5639 5634 5630 5625 5620 5614 5609 5604 5601 5597 5592 5586 5578 5570 5564 5560 5555 5548 5540 5532 5526 5522 5516 5508 5498 5489 5479 5469 5459 5449
5780 5778 5776 5774 5772 5771 5769 5767 5766 5764 5762 5761 5759 5757 5756 5754 5753 5751 5749 5747 5746 5744 5742 5740 5738 5736 5734 5732 5730 5728 5726 5723 5721 5718 5715 5713 5710 5707 5704 5701 5698 5695 5692 5689 5686 5682 5679 5675 5671 5667 5663 5659 5655 5651 5647 5643 5639 5635 5630 5625 5620 5615 5610 5604 5598 5593 5591 5587 5582 5575 5565 5555 5549 5545 5539 5531 5521 5513 5508 5503 5496 5487 5478 5468 5458 5449 5440
5779 5777 5775 5773 5771 5770 5768 5766 5764 5763 5761 5760 5758 5757 5755 5753 5751 5750 5748 5746 5744 5742 5740 5739 5737 5735 5732 5730 5728 5726 5723 5720 5718 5715 5712 5709 5707 5704 5701 5698 5695 5692 5689 5685 5682 5679 5675 5671 5668 5664 5660 5656 5651 5647 5643 5639 5635 5630 5625 5621 5616 5611 5606 5600 5594 5587 5582 5578 5576 5573 5567 5555 5543 5535 5530 5524 5514 5504 5497 5490 5483 5475 5466 5456 5447 5438 5430
5779 5776 5774 5772 5771 5769 5767 5765 5764 5762 5760 5759 5757 5756 5754 5752 5750 5749 5747 5745 5743 5741 5739 5737 5735 5732 5730 5728 5725 5722 5720 5717 5715 5712 5709 5707 5704 5701 5698 5695 5692 5689 5686 5682 5678 5675 5672 5668 5664 5660 5656 5652 5647 5643 5639 5634 5630 5626 5622 5617 5613 5607 5601 5596 5590 5584 5576 5569 5564 5561 5561 5556 5546 5533 5523 5515 5506 5496 5488 5480 5473 5466 5458 5449 5441 5433 5424
5779 5776 5774 5772 5770 5769 5767 5765 5763 5761 5760 5758 5756 5754 5753 5751 5749 5747 5745 5743 5741 5739 5737 5734 5732 5730 5727 5725 5722 5719 5717 5714 5712 5709 5707 5704 5701 5698 5695 5692 5689 5685 5682 5679 5675 5671 5668 5664 5660 5656 5652 5648 5643 5639 5635 5630 5625 5621 5617 5612 5608 5603 5597 5591 5585 5579 5572 5565 5556 5547 5540 5538 5533 5525 5514 5504 5495 5486 5476 5468 5461 5456 5449 5441 5433 5426 5420
5779 5777 5774 5772 5770 5768 5767 5765 5763 5761 5759 5757 5755 5753 5751 5749 5747 5745 5743 5741 5739 5737 5734 5732 5730 5727 5725 5722 5719 5717 5714 5712 5709 5707 5704 5701 5698 5695 5692 5688 5685 5682 5678 5675 5671 5667 5664 5660 5656 5652 5648 5644 5639 5635 5631 5626 5621 5616 5612 5607 5602 5598 5593 5588 5581 5574 5566 5558 5551 5542 5532 5523 5517 5510 5501 5493 5485 5477 5468 5459 5450 5443 5438 5432 5424 5417 5410
5779 5777 5775 5772 5770 5768 5766 5764 5762 5760 5758 5756 5754 5752 5750 5748 5745 5743 5741 5739 5737 5734 5732 5730 5727 5725 5722 5720 5717 5714 5712 5709 5707 5704 5701 5698 5695 5692 5689 5685 5682 5679 5675 5671 5668 5664 5660 5656 5652 5648 5643 5639 5635 5631 5626 5622 5617 5612 5607 5602 5597 5592 5588 5583 5577 5571 5562 5553 5544 5537 5530 5520 5510 5501 5493 5484 5475 5466 5458 5450 5442 5434 5427 5422 5415 5408 5402
5780 5777 5775 5773 5770 5768 5766 5764 5762 5759 5757 5755 5753 5750 5748 5746 5743 5741 5739 5737 5734 5732 5729 5727 5725 5722 5720 5718 5716 5713 5710 5707 5704 5701 5698 5695 5692 5689 5686 5682 5679 5675 5672 5668 5664 5660 5656 5652 5648 5643 5639 5635 5631 5626 5621 5617 5612 5607 5601 5595 5589 5583 5577 5572 5567 5563 5559 5551 5540 5531 5524 5515 5505 5494 5485 5474 5463 5452 5443 5435 5429 5424 5418 5413 5408 5402 5396
5779 5777 5774 5772 5770 5768 5765 5763 5761 5758 5756 5753 5751 5748 5746 5743 5741 5739 5736 5734 5732 5729 5727 5725 5722 5720 5718 5715 5713 5710 5707 5704 5702 5699 5696 5693 5689 5686 5683 5679 5676 5672 5669 5665 5661 5657 5652 5648 5643 5639 5635 5631 5626 5621 5616 5611 5605 5600 5594 5588 5582 5575 5568 5562 5556 5552 5549 5545 5538 5529 5522 5514 5503 5491 5480 5470 5459 5447 5435 5426 5419 5413 5408 5402 5398 5393 5387
5779 5776 5774 5772 5769 5767 5764 5762 5759 5757 5754 5752 5749 5746 5744 5741 5739 5736 5734 5732 5729 5727 5725 5722 5720 5718 5715 5712 5710 5708 5705 5702 5699 5696 5693 5690 5687 5683 5679 5676 5672 5668 5665 5661 5657 5653 5648 5644 5639 5635 5630 5626 5622 5617 5612 5606 5599 5593 5587 5581 5574 5568 5561 5553 5546 5539 5533 5528 5524 5517 5509 5501 5494 5484 5473 5463 5454 5442 5431 5421 5414 5407 5401 5395 5390 5385 5380
5778 5776 5773 5771 5768 5766 5763 5761 5758 5755 5752 5750 5747 5744 5741 5739 5736 5734 5732 5729 5727 5725 5723 5720 5718 5716 5713 5710 5708 5705 5703 5699 5696 5693 5690 5687 5683 5679 5676 5672 5668 5664 5660 5656 5652 5648 5644 5639 5635 5631 5627 5622 5617 5613 5607 5601 5595 5588 5582 5575 5568 5561 5553 5545 5537 5528 5519 5509 5500 5492 5483 5474 5468 5461 5454 5448 5442 5435 5426 5418 5410 5404 5397 5390 5383 5378 5373
5778 5776 5773 5770 5768 5765 5762 5759 5756 5753 5750 5748 5745 5742 5739 5737 5734 5732 5730 5727 5725 5723 5721 5718 5716 5714 5711 5709 5706 5703 5700 5697 5694 5690 5687 5683 5680 5676 5672 5668 5664 5660 5656 5652 5648 5644 5640 5636 5632 5628 5623 5619 5614 5609 5603 5597 5590 5584 5577 5570 5563 5555 5547 5539 5529 5521 5512 5500 5489 5479 5470 5460 5452 5445 5438 5432 5427 5424 5419 5413 5406 5399 5393 5386 5378 5372 5366
5778 5775 5772 5770 5767 5764 5761 5758 5755 5752 5748 5745 5743 5740 5737 5735 5733 5730 5728 5726 5723 5721 5719 5717 5714 5712 5709 5706 5703 5700 5697 5694 5691 5687 5683 5680 5676 5672 5668 5664 5660 5656 5652 5648 5644 5640 5636 5632 5628 5624 5620 5614 5609 5605 5599 5593 5586 5580 5573 5565 5558 5550 5542 5533 5523 5512 5502 5493 5482 5471 5462 5454 5446 5438 5432 5425 5419 5414 5410 5406 5400 5392 5386 5380 5374 5367 5361
5778 5775 5772 5769 5766 5762 5759 5756 5753 5750 5747 5744 5741 5738 5735 5733 5731 5728 5726 5724 5722 5719 5717 5715 5712 5709 5706 5703 5700 5697 5694 5691 5687 5684 5680 5676 5672 5668 5664 5660 5656 5652 5648 5644 5640 5636 5632 5629 5624 5620 5615 5610 5605 5600 5594 5588 5582 5575 5568 5560 5552 5544 5535 5526 5516 5505 5494 5483 5474 5465 5457 5448 5441 5434 5428 5422 5416 5409 5403 5398 5394 5388 5381 5374 5367 5361 5355
5777 5774 5771 5768 5764 5761 5758 5755 5751 5748 5745 5742 5739 5736 5734 5731 5729 5727 5724 5722 5720 5717 5714 5712 5709 5706 5704 5701 5697 5694 5691 5687 5684 5680 5676 5672 5668 5664 5660 5656 5652 5648 5644 5640 5636 5632 5628 5624 5620 5615 5611 5606 5601 5595 5589 5583 5577 5570 5561 5552 5544 5535 5526 5516 5506 5496 5486 5476 5467 5459 5451 5444 5437 5430 5424 5418 5413 5408 5401 5394 5389 5383 5376 5369 5362 5355 5348
5776 5773 5770 5767 5763 5760 5757 5754 5750 5747 5744 5740 5737 5735 5732 5729 5727 5725 5722 5720 5717 5715 5712 5709 5706 5703 5700 5697 5694 5690 5687 5683 5680 5676 5672 5668 5664 5660 5656 5652 5648 5644 5640 5636 5632 5628 5624 5620 5616 5611 5606 5601 5595 5589 5583 5576 5570 5564 5556 5547 5536 5526 5517 5507 5497 5488 5479 5470 5462 5454 5447 5440 5434 5428 5421 5414 5409 5404 5398 5392 5385 5379 5372 5365 5358 5350 5342
5775 5772 5769 5766 5762 5759 5755 5752 5749 5745 5742 5739 5736 5733 5730 5727 5725 5722 5720 5717 5715 5712 5709 5706 5703 5700 5697 5694 5690 5687 5683 5679 5676 5672 5668 5664 5660 5656 5652 5648 5644 5640 5637 5633 5629 5624 5620 5615 5611 5606 5601 5595 5589 5583 5576 5569 5563 5556 5548 5540 5530 5519 5509 5499 5489 5480 5471 5463 5456 5450 5444 5437 5431 5425 5418 5411 5404 5398 5392 5386 5380 5374 5368 5361 5354 5347 5339
5774 5771 5768 5764 5761 5757 5754 5750 5747 5743 5740 5737 5734 5730 5728 5725 5723 5720 5717 5715 5712 5709 5706 5703 5700 5697 5694 5690 5686 5683 5679 5675 5671 5667 5663 5659 5655 5651 5647 5644 5640 5636 5633 5629 5625 5620 5616 5611 5606 5600 5595 5589 5583 5576 5569 5562 5555 5547 5539 5530 5520 5510 5500 5490 5481 5473 5465 5458 5452 5445 5439 5433 5427 5421 5415 5408 5401 5394 5388 5381 5374 5368 5361 5354 5346 5339 5332
5772 5769 5766 5763 5759 5756 5752 5748 5745 5742 5738 5735 5732 5729 5726 5723 5720 5718 5715 5712 5709 5706 5703 5700 5697 5693 5690 5686 5683 5679 5675 5671 5667 5663 5659 5655 5651 5647 5643 5639 5635 5632 5628 5624 5619 5615 5610 5606 5600 5595 5589 5583 5577 5570 5563 5555 5547 5539 5530 5520 5510 5500 5491 5482 5474 5467 5460 5454 5448 5442 5436 5430 5424 5418 5412 5405 5397 5390 5383 5376 5369 5362 5354 5346 5337 5330 5323
5771 5768 5765 5761 5758 5754 5751 5747 5743 5740 5737 5733 5730 5727 5724 5721 5718 5715 5712 5709 5706 5703 5700 5697 5693 5690 5686 5682 5679 5675 5671 5667 5663 5659 5655 5651 5647 5643 5639 5635 5631 5627 5622 5618 5614 5609 5604 5600 5595 5589 5583 5577 5570 5563 5555 5548 5540 5532 5523 5513 5503 5493 5483 5475 5468 5462 5456 5450 5445 5439 5433 5427 5421 5415 5408 5402 5394 5387 5379 5371 5363 5355 5347 5339 5331 5324 5317
5769 5766 5763 5759 5756 5753 5749 5745 5742 5738 5735 5731 5728 5725 5722 5719 5716 5713 5710 5707 5703 5700 5697 5693 5690 5686 5682 5678 5675 5670 5666 5662 5659 5655 5651 5647 5643 5639 5635 5631 5627 5622 5617 5613 5609 5604 5598 5594 5589 5583 5577 5571 5564 5556 5548 5540 5532 5524 5515 5505 5495 5486 5477 5470 5464 5457 5451 5446 5441 5435 5430 5424 5418 5411 5405 5399 5392 5384 5375 5367 5358 5350 5341 5333 5324 5316 5308
5767 5764 5761 5758 5754 5751 5747 5743 5739 5736 5732 5729 5726 5722 5719 5716 5713 5710 5707 5703 5700 5696 5693 5689 5686 5682 5678 5674 5670 5666 5662 5658 5655 5651 5647 5643 5639 5635 5631 5626 5622 5617 5613 5608 5603 5599 5594 5589 5584 5578 5572 5565 5558 5550 5542 5533 5525 5517 5507 5497 5488 5480 5472 5466 5460 5455 5448 5442 5437 5431 5425 5419 5413 5407 5400 5394 5387 5379 5370 5361 5353 5346 5337 5328 5318 5309 5300
5765 5762 5759 5756 5752 5748 5745 5741 5737 5733 5730 5726 5723 5720 5716 5713 5710 5706 5703 5700 5696 5693 5689 5686 5682 5678 5674 5670 5666 5662 5658 5654 5650 5646 5643 5639 5634 5630 5626 5622 5617 5613 5608 5603 5598 5593 5589 5584 5579 5573 5567 5560 5551 5543 5534 5525 5517 5509 5501 5491 5483 5475 5468 5462 5457 5452 5446 5439 5433 5427 5421 5415 5408 5401 5395 5388 5381 5375 5367 5359 5350 5343 5335 5326 5315 5304 5294
5763 5760 5756 5753 5750 5746 5742 5738 5735 5731 5727 5724 5720 5717 5713 5710 5706 5703 5700 5696 5693 5689 5686 5682 5678 5674 5670 5666 5662 5658 5653 5649 5645 5641 5638 5634 5630 5626 5622 5617 5612 5608 5603 5599 5594 5589 5584 5578 5572 5566 5560 5553 5546 5537 5528 5519 5510 5503 5494 5486 5478 5471 5465 5460 5454 5449 5443 5436 5430 5423 5417 5411 5404 5397 5390 5384 5377 5371 5365 5358 5349 5340 5331 5322 5312 5301 5289